Meteo pe oră la Bolshoe Kapkovo

Astăzi, 12 Mai, Miercuri

Timp Temperatura Precipitaţii Vânt Presiune Umiditate
00:00 +9°C° 0 mm 2 m/s 745 mmHg 88%
01:00 +10°C° 0 mm 1 m/s 745 mmHg 91%
02:00 +10°C° 0 mm 1 m/s 745 mmHg 94%
03:00 +10°C° 0 mm 1 m/s 745 mmHg 94%
04:00 +11°C° 0 mm 1 m/s 745 mmHg 93%
05:00 +11°C° 0 mm 1 m/s 745 mmHg 93%
06:00 +13°C° 0 mm 2 m/s 746 mmHg 84%
07:00 +15°C° 0 mm 2 m/s 746 mmHg 76%
08:00 +17°C° 0 mm 3 m/s 746 mmHg 67%
09:00 +18°C° 0 mm 3 m/s 745 mmHg 61%
10:00 +19°C° 0 mm 3 m/s 745 mmHg 55%
11:00 +20°C° 0 mm 3 m/s 745 mmHg 49%
12:00 +21°C° 0 mm 3 m/s 744 mmHg 48%
13:00 +22°C° 0 mm 4 m/s 744 mmHg 48%
14:00 +22°C° 0 mm 4 m/s 743 mmHg 47%
15:00 +21°C° 0.4 mm 4 m/s 743 mmHg 56%
16:00 +20°C° 0.4 mm 4 m/s 742 mmHg 65%
17:00 +18°C° 0.4 mm 4 m/s 741 mmHg 74%
18:00 +18°C° 1.2 mm 4 m/s 741 mmHg 79%
19:00 +16°C° 1.2 mm 5 m/s 740 mmHg 84%
20:00 +15°C° 1.2 mm 5 m/s 740 mmHg 89%
21:00 +14°C° 1.4 mm 5 m/s 740 mmHg 90%
22:00 +13°C° 1.4 mm 5 m/s 740 mmHg 91%
23:00 +13°C° 1.4 mm 5 m/s 740 mmHg 92%

Mâine, 13 Mai, Joi

Timp Temperatura Precipitaţii Vânt Presiune Umiditate
00:00 +11°C° 0.1 mm 4 m/s 740 mmHg 93%
01:00 +10°C° 0.1 mm 3 m/s 740 mmHg 94%
02:00 +9°C° 0.1 mm 3 m/s 740 mmHg 95%
03:00 +8°C° 0 mm 3 m/s 740 mmHg 96%
04:00 +8°C° 0 mm 2 m/s 740 mmHg 96%
05:00 +7°C° 0 mm 2 m/s 740 mmHg 96%
06:00 +9°C° 0 mm 2 m/s 740 mmHg 89%
07:00 +10°C° 0 mm 3 m/s 740 mmHg 82%
08:00 +11°C° 0 mm 4 m/s 740 mmHg 75%
09:00 +13°C° 0 mm 4 m/s 740 mmHg 70%
10:00 +14°C° 0 mm 4 m/s 740 mmHg 65%
11:00 +15°C° 0 mm 4 m/s 739 mmHg 60%
12:00 +15°C° 0.2 mm 4 m/s 739 mmHg 61%
13:00 +17°C° 0.2 mm 4 m/s 738 mmHg 62%
14:00 +16°C° 0.2 mm 5 m/s 738 mmHg 63%
15:00 +15°C° 0.4 mm 4 m/s 737 mmHg 70%
16:00 +14°C° 0.4 mm 3 m/s 737 mmHg 77%
17:00 +14°C° 0.4 mm 2 m/s 737 mmHg 84%
18:00 +13°C° 0.2 mm 2 m/s 736 mmHg 87%
19:00 +10°C° 0.2 mm 3 m/s 736 mmHg 90%
20:00 +9°C° 0.2 mm 3 m/s 736 mmHg 94%
21:00 +9°C° 1.3 mm 3 m/s 736 mmHg 95%
22:00 +8°C° 1.3 mm 2 m/s 736 mmHg 96%
23:00 +8°C° 1.3 mm 2 m/s 736 mmHg 97%

Poimâine, 14 Mai, Vineri

Timp Temperatura Precipitaţii Vânt Presiune Umiditate
00:00 +8°C° 0.6 mm 2 m/s 736 mmHg 97%
01:00 +7°C° 0.6 mm 2 m/s 736 mmHg 97%
02:00 +7°C° 0.6 mm 2 m/s 737 mmHg 97%
03:00 +7°C° 0 mm 2 m/s 737 mmHg 96%
04:00 +7°C° 0 mm 2 m/s 737 mmHg 96%
05:00 +6°C° 0 mm 2 m/s 737 mmHg 95%
06:00 +8°C° 0 mm 2 m/s 738 mmHg 89%
07:00 +10°C° 0 mm 2 m/s 738 mmHg 83%
08:00 +11°C° 0 mm 3 m/s 738 mmHg 76%
09:00 +13°C° 0 mm 3 m/s 738 mmHg 69%
10:00 +14°C° 0 mm 3 m/s 738 mmHg 61%
11:00 +17°C° 0 mm 3 m/s 738 mmHg 53%
12:00 +17°C° 0 mm 3 m/s 738 mmHg 53%
13:00 +18°C° 0 mm 3 m/s 738 mmHg 54%
14:00 +18°C° 0 mm 3 m/s 738 mmHg 54%
15:00 +18°C° 0 mm 3 m/s 737 mmHg 57%
16:00 +19°C° 0 mm 3 m/s 737 mmHg 60%
17:00 +19°C° 0 mm 3 m/s 736 mmHg 63%
18:00 +17°C° 0 mm 3 m/s 736 mmHg 72%
19:00 +14°C° 0 mm 3 m/s 736 mmHg 81%
20:00 +13°C° 0 mm 2 m/s 735 mmHg 90%
21:00 +13°C° 0.1 mm 2 m/s 735 mmHg 92%
22:00 +13°C° 0.1 mm 2 m/s 734 mmHg 94%
23:00 +12°C° 0.1 mm 3 m/s 734 mmHg 96%

15 Mai, Sâmbătă

Timp Temperatura Precipitaţii Vânt Presiune Umiditate
00:00 +13°C° 0.2 mm 2 m/s 734 mmHg 97%
01:00 +13°C° 0.2 mm 2 m/s 734 mmHg 98%
02:00 +12°C° 0.2 mm 2 m/s 733 mmHg 98%
03:00 +12°C° 0 mm 2 m/s 733 mmHg 98%
04:00 +13°C° 0 mm 2 m/s 733 mmHg 98%
05:00 +13°C° 0 mm 2 m/s 733 mmHg 98%
06:00 +14°C° 0 mm 2 m/s 733 mmHg 93%
07:00 +16°C° 0 mm 2 m/s 733 mmHg 89%
08:00 +17°C° 0 mm 2 m/s 733 mmHg 84%
09:00 +18°C° 0.1 mm 3 m/s 733 mmHg 79%
10:00 +19°C° 0.1 mm 3 m/s 733 mmHg 73%
11:00 +21°C° 0.1 mm 3 m/s 733 mmHg 67%
12:00 +20°C° 1.5 mm 3 m/s 732 mmHg 72%
13:00 +19°C° 1.5 mm 2 m/s 732 mmHg 76%
14:00 +19°C° 1.5 mm 2 m/s 732 mmHg 81%
15:00 +19°C° 0.3 mm 2 m/s 732 mmHg 80%
16:00 +19°C° 0.3 mm 2 m/s 731 mmHg 79%
17:00 +20°C° 0.3 mm 1 m/s 731 mmHg 78%
18:00 +19°C° 0.6 mm 1 m/s 731 mmHg 82%
19:00 +16°C° 0.6 mm 2 m/s 731 mmHg 86%
20:00 +15°C° 0.6 mm 2 m/s 731 mmHg 90%
21:00 +14°C° 0.2 mm 2 m/s 731 mmHg 91%
22:00 +14°C° 0.2 mm 2 m/s 731 mmHg 92%
23:00 +13°C° 0.2 mm 2 m/s 731 mmHg 93%

16 Mai, Duminică

Timp Temperatura Precipitaţii Vânt Presiune Umiditate
00:00 +13°C° 0 mm 2 m/s 732 mmHg 94%
01:00 +12°C° 0 mm 3 m/s 732 mmHg 95%
02:00 +12°C° 0 mm 3 m/s 732 mmHg 96%
03:00 +11°C° 0 mm 3 m/s 733 mmHg 96%
04:00 +11°C° 0 mm 3 m/s 733 mmHg 95%
05:00 +11°C° 0 mm 3 m/s 734 mmHg 95%
06:00 +11°C° 0 mm 3 m/s 734 mmHg 93%
07:00 +11°C° 0 mm 3 m/s 735 mmHg 91%
08:00 +11°C° 0 mm 4 m/s 735 mmHg 89%
09:00 +11°C° 0 mm 3 m/s 736 mmHg 86%
10:00 +12°C° 0 mm 3 m/s 736 mmHg 83%
11:00 +13°C° 0 mm 3 m/s 736 mmHg 80%
12:00 +13°C° 0 mm 3 m/s 737 mmHg 78%
13:00 +14°C° 0 mm 3 m/s 737 mmHg 76%
14:00 +16°C° 0 mm 3 m/s 737 mmHg 74%
15:00 +16°C° 0 mm 3 m/s 738 mmHg 72%
16:00 +16°C° 0 mm 2 m/s 738 mmHg 71%
17:00 +16°C° 0 mm 2 m/s 738 mmHg 70%
18:00 +15°C° 0 mm 2 m/s 738 mmHg 77%
19:00 +14°C° 0 mm 1 m/s 738 mmHg 83%
20:00 +12°C° 0 mm 1 m/s 739 mmHg 89%
21:00 +12°C° 0 mm 1 m/s 739 mmHg 90%
22:00 +10°C° 0 mm 0 m/s 739 mmHg 90%
23:00 +10°C° 0 mm 0 m/s 739 mmHg 91%

17 Mai, Luni

Timp Temperatura Precipitaţii Vânt Presiune Umiditate
00:00 +10°C° 0 mm 1 m/s 739 mmHg 91%
01:00 +10°C° 0 mm 1 m/s 739 mmHg 92%
02:00 +10°C° 0 mm 1 m/s 740 mmHg 93%
03:00 +10°C° 0 mm 1 m/s 740 mmHg 92%
04:00 +10°C° 0 mm 1 m/s 740 mmHg 92%
05:00 +11°C° 0 mm 1 m/s 740 mmHg 91%
06:00 +13°C° 0 mm 2 m/s 740 mmHg 83%
07:00 +14°C° 0 mm 3 m/s 740 mmHg 75%
08:00 +17°C° 0 mm 3 m/s 740 mmHg 67%
09:00 +18°C° 0 mm 4 m/s 740 mmHg 62%
10:00 +20°C° 0 mm 4 m/s 740 mmHg 57%
11:00 +21°C° 0 mm 4 m/s 739 mmHg 52%
12:00 +22°C° 0 mm 4 m/s 739 mmHg 51%
13:00 +22°C° 0 mm 4 m/s 739 mmHg 51%
14:00 +23°C° 0 mm 5 m/s 738 mmHg 50%
15:00 +23°C° 0 mm 4 m/s 738 mmHg 54%
16:00 +22°C° 0 mm 4 m/s 738 mmHg 58%
17:00 +22°C° 0 mm 4 m/s 738 mmHg 62%
18:00 +21°C° 0 mm 4 m/s 738 mmHg 68%
19:00 +19°C° 0 mm 4 m/s 737 mmHg 75%
20:00 +18°C° 0 mm 4 m/s 737 mmHg 81%
21:00 +17°C° 0 mm 4 m/s 737 mmHg 85%
22:00 +17°C° 0 mm 4 m/s 737 mmHg 90%
23:00 +15°C° 0 mm 4 m/s 737 mmHg 94%
Arată mai mult

Formular de consimțământ

Meteoprog și furnizorii noștri de servicii pot stoca și accesa date personale, precum cookies, identificatori de dispozitiv sau alte tehnologii similare pe dispozitivul dumneavoastră și procesa astfel de date pentru a personaliza conținutul și reclamele, dar și pentru a oferi caracteristici de social media și pentru a analiza traficul.

  • Stocarea și/sau accesarea informațiilor pe dispozitivul dumneavoastră

    Cookies, identificatori de dispozitiv sau alte informații pot fi stocate sau accesate pe dispozitiv în scopurile indicate mai sus.

  • Reclame și conținut personalizat, evaluarea reclamelor și a conținutului, informații despre audiențe și dezvoltarea produselor

    Reclamele și conținutul pot fi personalizate pe baza unui profil. Pot fi adăugate date suplimentare pentru a personaliza mai bine reclamele și conținutul. Performanța reclamelor și conținutului poate fi măsurată. Pot fi obținute informații despre utilizatorii care au văzut reclamele și conținutul. Aceste date pot fi utilizate pentru a dezvolta sau îmbunătăți experiența utilizatorilor, sistemele și software-ul.

Dând clic pe ‘Sunt de acord’, permiteți utilizarea cookie-urilor menționate, a identificatorilor de dispozitiv, balizelor web sau altor tehnologii similare. Setările pot fi modificate din browser-ul dispozitivului dumneavoastră.

În anumite scopuri, interesele legitime pot prima asupra consimțământului. Puteți citi mai multe informații în acest sens în Politica privind Confidențialitatea Datelor și Cookie.